Weather History for Ostrava, Czech Republic

Change the Weather History Date:

Monday, February 25, 2013

  Actual Average (EPKT) Record (EPKT)
Temperature  
Mean Temperature 34 °F -  
Max Temperature 36 °F 44 °F 57 °F (2008)
Min Temperature 33 °F 30 °F - (2002)
Degree Days  
Heating Degree Days 30    
Moisture  
Dew Point 33 °F    
Average Humidity 94    
Maximum Humidity 100    
Minimum Humidity 87    
Precipitation  
Precipitation 0.00 in 0.04 in - ()
Sea Level Pressure  
Sea Level Pressure 30.10 in    
Wind  
Wind Speed 4 mph ()    
Max Wind Speed 7 mph    
Max Gust Speed -    
Visibility 1.4 miles    
Events Fog    
Averages and records for this station are not official NWS values.
T = Trace of Precipitation, MM = Missing Value Source: Averaged Metar Reports

Daily Weather History Graph

Daily Weather History Graph

Search for Another Location

Airport:

Trip Planner

Search our weather history database for the weather conditions in past years. The results will help you decide how hot, cold, wet, or windy it might be!

Date:

Astronomy

Feb. 25, 2013 Rise Set
Actual Time 6:38 AM CET 5:23 PM CET
Civil Twilight 6:06 AM CET 5:55 PM CET
Nautical Twilight 5:28 AM CET 6:33 PM CET
Astronomical Twilight 4:51 AM CET 7:10 PM CET
Moon 5:22 PM CET (2/25) 5:57 AM CET (2/25)
Length of Visible Light 11h 49m
Length of Day
10h 45m
Full, 100% of the Moon is Illuminated
Feb 25
Full
Feb 25
Full
Mar 4
Last Quarter
Mar 11
New
Mar 19
First Quarter

Hourly Weather History & Observations

Time (CET) Temp. Windchill Dew Point Humidity Pressure Visibility Wind Dir Wind Speed Gust Speed Precip Events Conditions
12:00 AM 33.8 °F 30.8 °F 33.8 °F 100% 29.95 in 0.9 mi NNE 3.5 mph - N/A   Mostly Cloudy
12:30 AM 33.8 °F 30.8 °F 33.8 °F 100% 29.95 in 0.9 mi NE 3.5 mph - N/A   Overcast
1:00 AM 34 °F - 33 °F 94% 30.01 in 1 mi NE 4.5 mph - -   Mist
1:00 AM 33.8 °F 30.8 °F 33.8 °F 100% 29.95 in 0.9 mi NE 3.5 mph - N/A   Scattered Clouds
1:30 AM 33.8 °F 28.6 °F 33.8 °F 100% 29.95 in 0.9 mi NE 5.8 mph - N/A   Mostly Cloudy
2:00 AM 33.8 °F 30.8 °F 33.8 °F 100% 29.95 in 0.9 mi ENE 3.5 mph - N/A   Mostly Cloudy
2:30 AM 33.8 °F 29.6 °F 33.8 °F 100% 29.95 in 0.9 mi NE 4.6 mph - N/A   Mostly Cloudy
3:00 AM 33.8 °F 30.8 °F 33.8 °F 100% 29.98 in 0.9 mi NE 3.5 mph - N/A   Overcast
3:30 AM 33.8 °F 28.6 °F 32.0 °F 93% 29.95 in 0.9 mi NNE 5.8 mph - N/A   Overcast
4:00 AM 33.8 °F - 32.0 °F 93% 29.98 in 1.2 mi NNE 2.3 mph - N/A   Overcast
4:30 AM 33.8 °F 28.6 °F 32.0 °F 93% 29.98 in 1.2 mi NE 5.8 mph - N/A   Overcast
5:00 AM 33.8 °F 29.6 °F 33.8 °F 100% 29.98 in 1.6 mi North 4.6 mph - N/A   Overcast
5:30 AM 33.8 °F 28.6 °F 33.8 °F 100% 29.98 in 1.9 mi North 5.8 mph - N/A   Overcast
6:00 AM 33.8 °F 29.6 °F 33.8 °F 100% 30.01 in 1.9 mi North 4.6 mph - N/A   Overcast
6:30 AM 33.8 °F 28.6 °F 32.0 °F 93% 30.01 in 1.6 mi NNE 5.8 mph - N/A   Overcast
7:00 AM 34 °F - 32 °F 91% 30.08 in 2 mi NNE 4.5 mph - -   Mist
7:00 AM 33.8 °F 30.8 °F 32.0 °F 93% 30.04 in 1.6 mi NNE 3.5 mph - N/A   Overcast
7:30 AM 33.8 °F 29.6 °F 32.0 °F 93% 30.04 in 1.4 mi North 4.6 mph - N/A   Overcast
8:00 AM 33.8 °F 29.6 °F 32.0 °F 93% 30.06 in 1.6 mi NNE 4.6 mph - N/A   Overcast
8:30 AM 33.8 °F 28.6 °F 32.0 °F 93% 30.04 in 1.6 mi NNE 5.8 mph - N/A   Overcast
9:00 AM 33.8 °F 30.8 °F 32.0 °F 93% 30.06 in 1.5 mi NE 3.5 mph - N/A   Overcast
9:30 AM 33.8 °F 30.8 °F 32.0 °F 93% 30.06 in 1.5 mi NNE 3.5 mph - N/A   Overcast
10:00 AM 35.6 °F 31.7 °F 32.0 °F 87% 30.09 in 1.5 mi North 4.6 mph - N/A   Overcast
10:30 AM 35.6 °F 31.7 °F 32.0 °F 87% 30.09 in 1.5 mi North 4.6 mph - N/A   Overcast
11:00 AM 35.6 °F 31.7 °F 32.0 °F 87% 30.09 in 1.4 mi North 4.6 mph - N/A   Overcast
11:30 AM 35.6 °F 31.7 °F 32.0 °F 87% 30.12 in 1.4 mi NNE 4.6 mph - N/A   Overcast
12:00 PM 35.6 °F 31.7 °F 32.0 °F 87% 30.12 in 1.3 mi NNE 4.6 mph - N/A   Overcast
12:30 PM 35.6 °F 31.7 °F 33.8 °F 93% 30.12 in 1.4 mi NNE 4.6 mph - N/A   Overcast
1:00 PM 35 °F - 33 °F 90% 30.18 in 1 mi North 6.7 mph - -   Mist
1:00 PM 35.6 °F 30.7 °F 33.8 °F 93% 30.12 in 1.4 mi North 5.8 mph - N/A   Overcast
1:30 PM 35.6 °F 31.7 °F 33.8 °F 93% 30.12 in 1.4 mi North 4.6 mph - N/A   Overcast
2:00 PM 35.6 °F 32.8 °F 33.8 °F 93% 30.12 in 1.6 mi North 3.5 mph - N/A   Overcast
2:30 PM 35.6 °F 31.7 °F 33.8 °F 93% 30.12 in 1.6 mi North 4.6 mph - N/A   Overcast
3:00 PM 35.6 °F 31.7 °F 33.8 °F 93% 30.15 in 1.6 mi North 4.6 mph - N/A   Overcast
3:30 PM 37.4 °F - 33.8 °F 87% 30.15 in 1.6 mi North 2.3 mph - N/A   Overcast
4:00 PM 35.6 °F - 33.8 °F 93% 30.15 in 1.6 mi North 2.3 mph - N/A   Overcast
4:30 PM 35.6 °F 31.7 °F 32.0 °F 87% 30.15 in 1.6 mi NNE 4.6 mph - N/A   Mostly Cloudy
5:00 PM 35.6 °F 32.8 °F 33.8 °F 93% 30.15 in 1.4 mi NNE 3.5 mph - N/A   Mostly Cloudy
5:30 PM 35.6 °F - 33.8 °F 93% 30.18 in 1.5 mi ENE 2.3 mph - N/A   Overcast
6:00 PM 35.6 °F - 33.8 °F 93% 30.18 in 1.6 mi NNE 2.3 mph - N/A   Overcast
6:30 PM 35.6 °F - 33.8 °F 93% 30.21 in 1.9 mi NE 1.2 mph - N/A   Overcast
7:00 PM 35 °F - 33 °F 90% 30.27 in 2 mi NNE 4.5 mph - -   Mist
7:00 PM 35.6 °F 32.8 °F 33.8 °F 93% 30.21 in 1.7 mi NNE 3.5 mph - N/A   Overcast
7:30 PM 35.6 °F 32.8 °F 33.8 °F 93% 30.21 in 1.7 mi ENE 3.5 mph - N/A   Overcast
8:00 PM 33.8 °F 29.6 °F 32.0 °F 93% 30.21 in 1.9 mi NNE 4.6 mph - N/A   Overcast
8:30 PM 33.8 °F 29.6 °F 33.8 °F 100% 30.24 in 1.6 mi NE 4.6 mph - N/A   Overcast
9:00 PM 35.6 °F - 33.8 °F 93% 30.24 in 1.6 mi NE 2.3 mph - N/A   Overcast
9:30 PM 35.6 °F 32.8 °F 33.8 °F 93% 30.24 in 1.6 mi NE 3.5 mph - N/A   Overcast
10:00 PM 35.6 °F 30.7 °F 33.8 °F 93% 30.24 in 1.7 mi NNE 5.8 mph - N/A   Overcast
10:30 PM 35.6 °F 31.7 °F 33.8 °F 93% 30.24 in 1.4 mi NE 4.6 mph - N/A   Overcast
11:00 PM 33.8 °F 28.6 °F 33.8 °F 100% 30.24 in 1.2 mi NNE 5.8 mph - N/A   Overcast
11:30 PM 33.8 °F 29.6 °F 33.8 °F 100% 30.24 in 0.9 mi NE 4.6 mph - N/A   Overcast
11:35 PM 33.8 °F 28.6 °F 33.8 °F 100% 30.24 in 0.6 mi NE 5.8 mph - N/A   Overcast
11:45 PM 33.8 °F 28.6 °F 33.8 °F 100% 30.24 in 0.5 mi NE 5.8 mph - N/A Fog Light Drizzle